User: anonymous   Login
Location: Noordwijk
(52.2400°N, 4.4500°E)
Time: 09:50:12
(UTC+00:00)
Language:

LilacSat-2 - Orbit

View from above orbital plane
View from above orbital plane
View from above satellite
View from above satellite

Ground track
Ground track

The orbit data is extracted from the following two-line orbital elements,

1 40908U 15049K   22330.83527712  .00002466  00000-0  12845-3 0  9996
2 40908  97.5223 329.9734 0015137 166.9240 277.0868 15.16856805397094
Epoch (UTC): 26 November 2022 20:02:47
Eccentricity: 0.0015137
inclination: 97.5223°
perigee height: 505 km
apogee height: 526 km
right ascension of ascending node: 329.9734°
argument of perigee: 166.9240°
revolutions per day: 15.16856805
mean anomaly at epoch: 277.0868°
orbit number at epoch: 39709

The dashed part of the orbit path shows where the satellite is in the earth's shadow,  

DLR